GFSFLT1_prec_cthk_276.txt.gz
RH
46 43 43 43 42 43 46 49 52 60 66 64 73 71 78 97 72 65 68 66 65 59 46 32 31 29 23 23 24 23 31 22
38 34 32 33 35 38 42 46 53 59 62 60 66 62 60 59 60 60 52 52 45 29 18 12 12 11 10 9 8 8 12 6
29 28 28 31 35 38 41 44 49 52 53 56 55 55 60 54 51 45 30 22 15 7 4 3 2 2 2 2 2 2 7 8
26 27 28 27 28 33 37 43 50 49 48 46 50 49 38 32 26 21 12 5 3 2 2 1 1 2 2 2 2 2 6 9
31 29 27 25 25 25 26 28 30 34 31 29 23 20 14 9 6 4 3 2 2 2 2 2 2 2 2 3 2 3 4 10
39 35 31 29 25 25 25 25 24 23 17 14 8 6 5 4 2 2 2 2 2 2 2 2 2 3 3 3 3 4 9 10
41 36 35 36 32 28 26 24 22 16 13 6 4 3 2 2 2 3 3 3 3 3 3 3 3 3 4 4 4 5 6 7
41 38 38 36 32 27 18 16 14 11 5 3 2 2 2 2 4 4 6 4 3 3 3 3 4 4 5 5 6 7 7 9
43 40 37 33 31 24 17 13 7 4 3 3 3 3 3 3 3 4 4 3 3 4 4 4 5 5 5 5 6 6 7 8
48 43 38 31 27 24 16 9 6 5 4 3 3 3 3 3 4 4 4 4 4 5 5 5 5 5 5 6 6 6 7 8
50 48 38 28 23 16 12 11 8 6 5 4 4 4 4 4 4 4 4 5 5 5 6 6 6 6 6 7 8 8 8 9
52 47 37 31 24 18 14 11 9 7 6 5 4 4 4 4 5 5 5 5 6 6 6 7 7 7 7 8 9 9 9 10
50 49 42 38 30 22 14 12 10 8 6 5 4 4 5 5 5 5 6 6 7 7 7 8 8 8 8 9 9 10 11 14
55 53 46 39 33 24 17 15 12 10 8 6 5 5 5 6 6 6 7 7 8 8 8 8 9 9 9 10 10 11 13 17
48 47 45 41 35 31 21 16 14 12 11 10 6 6 7 6 7 7 8 8 8 8 8 9 9 9 10 10 10 11 13 14
45 42 42 41 38 35 25 21 17 14 12 12 8 7 7 8 8 9 9 9 8 8 9 9 10 10 10 10 10 11 11 13
46 48 47 45 40 36 26 26 23 17 14 12 8 8 9 9 9 9 9 9 9 9 10 10 10 10 10 10 10 12 14 14
39 40 45 46 43 39 35 30 25 19 15 12 9 10 10 10 10 9 9 9 9 10 10 10 10 10 10 11 11 12 15 17
44 43 48 52 52 51 42 35 30 22 17 13 11 11 11 10 10 10 10 10 10 10 10 11 11 11 11 12 12 13 17 17

GFSFLT1_prec_cthk_279.txt.gz
RH
51 51 49 49 45 47 49 50 49 48 54 55 69 73 66 76 72 73 91 67 61 61 55 42 30 19 14 12 11 12 13 11
49 48 47 45 42 40 41 42 45 52 48 67 54 70 64 62 74 64 57 55 49 37 30 19 10 5 3 2 2 5 7 7
45 45 42 40 35 34 35 39 40 48 55 48 60 54 55 60 61 56 47 41 28 14 7 3 2 5 2 1 2 3 7 9
39 38 34 34 34 34 35 39 41 41 50 48 50 55 54 51 49 39 25 17 7 3 1 1 2 3 3 2 2 3 9 9
34 31 31 30 31 33 34 34 35 41 44 43 42 43 44 39 28 11 6 3 2 2 2 2 2 3 3 6 4 10 9 10
29 28 27 27 28 28 27 29 30 32 32 32 31 31 24 18 9 4 2 2 2 2 2 2 3 4 4 4 5 5 11 12
29 30 31 33 33 29 26 28 26 24 24 24 25 21 17 12 9 8 8 8 4 3 3 3 3 4 4 4 6 6 7 11
35 38 39 39 36 32 31 29 28 26 22 20 17 16 13 8 8 8 8 9 7 3 3 3 4 4 4 8 6 8 8 11
40 40 41 41 36 32 30 28 26 21 15 13 12 10 8 8 8 9 8 7 4 3 4 4 4 4 6 9 8 9 10 11
45 43 45 44 39 35 31 29 24 19 14 11 9 7 7 5 3 4 4 4 4 4 5 6 6 5 6 11 8 8 10 9
47 47 47 48 46 40 33 28 23 19 15 7 5 5 4 4 5 6 4 4 4 5 7 8 7 6 6 8 10 8 10 10
48 47 45 46 43 40 35 26 21 17 12 9 6 6 5 5 5 6 6 5 5 7 8 7 7 7 7 8 11 11 14 15
45 46 46 44 45 43 36 23 16 12 11 10 9 7 8 8 7 6 5 5 6 6 8 7 8 8 8 9 9 12 16 17
44 45 48 47 47 44 35 24 16 13 11 11 9 9 11 8 6 5 5 6 6 8 8 8 8 8 8 9 11 15 17 17
42 43 47 49 49 47 37 29 19 14 12 11 11 11 11 10 8 7 8 9 9 9 10 9 9 8 8 9 13 17 17 17
44 46 49 52 51 50 45 32 24 17 13 12 12 12 12 11 7 8 9 11 12 11 11 11 9 9 9 9 10 17 17 17
42 47 52 56 55 49 47 38 30 22 16 13 13 13 13 9 9 9 9 10 11 13 14 14 12 9 10 10 10 13 17 17
43 47 48 49 46 45 46 44 33 22 19 15 14 13 13 12 11 11 12 14 12 13 13 14 11 10 10 10 11 13 18 18
50 50 48 49 48 50 50 48 35 25 25 19 15 15 15 14 15 16 16 15 15 13 12 15 15 11 11 11 11 17 18 19

GFSFLT1_prec_cthk_282.txt.gz
RH
50 53 54 48 47 49 47 47 46 46 43 44 45 47 60 66 66 63 66 67 66 69 58 46 34 26 12 6 5 4 7 4
54 53 51 45 46 44 47 48 48 45 45 43 49 57 63 66 63 61 60 61 54 48 43 26 14 6 2 1 1 2 7 3
53 52 53 46 44 45 43 42 42 41 42 48 43 56 53 51 54 53 52 54 46 33 22 9 2 2 2 2 2 4 9 5
48 52 53 45 43 39 34 34 37 39 37 44 44 52 44 47 44 48 45 36 27 13 5 2 1 2 2 2 2 4 9 9
43 47 49 46 39 34 33 33 36 40 39 39 43 43 39 39 47 39 31 18 9 4 2 2 2 2 2 3 4 5 6 9
38 41 41 42 36 32 33 35 36 36 34 38 41 37 35 33 27 21 15 9 4 2 2 2 2 3 4 5 4 5 5 6
37 35 36 34 31 33 32 31 29 30 32 35 32 28 24 20 18 19 13 7 3 2 2 3 4 5 6 4 4 4 5 5
40 41 34 31 32 32 32 30 28 27 26 26 24 22 23 21 20 15 13 7 3 3 4 4 4 4 5 4 4 4 5 5
49 41 35 32 30 32 32 31 28 25 24 22 22 21 18 15 14 14 10 5 3 4 4 4 4 4 5 5 5 6 6 6
44 47 40 34 36 39 36 33 31 29 26 23 22 22 14 12 12 10 5 4 4 5 4 4 4 4 6 6 5 6 6 7
45 46 50 47 42 44 40 37 36 31 27 25 22 19 13 11 8 6 5 5 5 5 5 4 5 5 6 6 7 8 8 8
41 41 43 47 55 55 47 42 39 38 32 26 21 16 13 12 6 5 4 5 5 5 5 5 5 6 7 9 10 10 10 9
47 42 44 42 47 47 45 41 38 33 29 23 18 14 11 8 6 5 5 5 5 5 5 6 6 7 7 8 9 10 9 9
54 46 41 42 45 46 44 40 36 31 27 24 14 9 6 6 5 5 5 5 5 6 7 6 7 7 8 9 9 11 11 10
58 48 43 41 44 45 46 43 38 33 28 22 11 7 7 6 5 5 5 6 6 7 7 7 7 7 7 8 11 11 13 13
53 46 42 40 42 44 46 44 39 35 29 21 12 10 8 7 6 7 8 8 8 8 8 8 8 8 8 8 9 13 15 14
50 44 41 40 43 44 48 46 43 37 31 22 16 13 11 9 8 8 9 9 9 9 10 9 8 8 8 9 10 11 15 13
51 43 40 40 43 46 51 53 50 42 33 27 24 17 12 10 8 8 8 8 9 10 11 9 9 9 9 10 10 11 14 13
48 45 45 44 45 48 56 57 56 49 39 31 24 17 14 11 9 9 9 9 9 11 12 10 9 10 10 10 11 12 15 16

GFSFLT1_prec_cthk_288.txt.gz
RH
41 43 49 53 52 49 45 42 44 41 41 43 41 45 44 43 43 47 49 51 51 55 57 56 56 48 38 23 8 2 1 2
36 38 46 55 56 51 49 52 51 49 44 44 45 45 43 41 40 44 48 52 50 52 50 49 48 37 22 5 2 1 2 5
39 38 46 56 58 56 54 56 57 53 48 48 48 47 44 44 43 46 47 50 45 44 44 42 36 25 10 3 2 2 4 8
49 47 49 59 62 60 61 61 60 56 52 49 46 45 43 44 43 44 43 45 39 39 38 32 25 12 6 4 2 2 2 7
55 53 51 60 64 61 66 66 63 59 53 48 44 41 42 42 39 39 41 36 36 35 30 24 13 8 6 4 3 2 3 3
56 55 52 52 60 61 62 64 62 58 53 45 39 40 40 36 36 39 36 34 32 27 22 13 8 6 6 4 3 3 3 3
67 60 58 55 52 54 57 60 59 53 44 37 38 37 36 34 36 36 32 30 24 17 13 10 7 6 6 4 3 3 3 3
61 57 55 61 57 49 50 54 54 47 40 35 34 36 35 33 36 32 24 19 17 14 11 9 7 6 5 3 3 3 4 4
56 53 53 57 62 59 55 59 53 44 39 36 36 36 33 34 31 22 18 17 16 14 10 8 7 6 5 4 3 4 4 5
50 53 52 51 52 56 56 58 55 48 43 40 43 40 34 31 27 21 19 17 17 15 12 10 6 5 4 4 4 4 5 5
51 52 52 50 53 54 55 55 55 49 46 45 44 43 38 32 28 24 23 21 17 16 13 11 6 6 4 5 5 5 6 6
52 51 45 46 45 47 50 52 57 51 48 45 43 43 39 34 30 27 25 22 19 19 14 12 7 5 5 5 5 6 6 7
48 57 54 53 48 47 50 49 50 50 48 47 47 41 39 37 35 32 28 22 18 15 13 9 6 5 5 5 6 7 7 7
41 44 45 46 56 56 60 55 50 45 44 48 45 42 39 39 36 33 25 20 18 16 10 6 5 6 6 6 7 7 8 8
42 43 48 53 57 57 59 62 59 52 44 40 42 44 41 39 33 26 23 20 18 12 8 6 5 6 6 7 7 8 8 9
33 40 46 50 58 61 69 70 63 55 48 45 46 47 40 35 29 26 22 19 16 11 7 6 6 6 6 7 8 9 9 9
38 39 50 53 56 66 71 74 70 60 54 51 50 47 41 34 29 26 22 19 12 10 7 6 6 6 7 8 9 9 10 9
49 40 49 53 57 67 75 75 72 65 59 55 51 47 42 36 31 27 23 19 12 9 7 6 6 6 7 8 10 11 10 9
61 59 45 55 59 66 75 72 67 63 61 53 50 48 44 38 34 27 22 15 11 9 8 6 6 7 8 10 11 11 10 10